Weather History for KMTH - October, 2011

Change the Weather History Date:

Tuesday, October 18, 2011

  Actual Average Record
Temperature  
Mean Temperature 78 °F 80 °F  
Max Temperature 83 °F 85 °F 90 °F (2007)
Min Temperature 73 °F 76 °F 64 °F (2000)
Degree Days  
Heating Degree Days 0 0  
Month to date heating degree days 0 0  
Since 1 July heating degree days 0 0  
Cooling Degree Days 13 15  
Month to date cooling degree days 271 303  
Year to date cooling degree days 4611 4257  
Growing Degree Days 28 (Base 50)    
Moisture  
Dew Point 75 °F    
Average Humidity 87    
Maximum Humidity 94    
Minimum Humidity 79    
Precipitation  
Precipitation 2.36 in 0.12 in 2.36 in (2011)
Month to date precipitation 13.17 2.97  
Year to date precipitation 28.34 39.52  
Snow  
Snow 0.00 in - - ()
Month to date snowfall 0.0  
Since 1 July snowfall 0.0  
Since 1 September snowfall 0.0  
Snow Depth 0.00 in    
Sea Level Pressure  
Sea Level Pressure 29.76 in    
Wind  
Wind Speed 10 mph (ESE)    
Max Wind Speed 16 mph    
Max Gust Speed 29 mph    
Visibility 8 miles    
Events Fog , Rain , Thunderstorm    
T = Trace of Precipitation, MM = Missing Value Source: NWS Daily Summary

Daily Weather History Graph

Daily Weather History Graph

Search for Another Location

Airport or City:

Trip Planner

Search our weather history database for the weather conditions in past years. The results will help you decide how hot, cold, wet, or windy it might be!

Date:

Astronomy

Oct. 18, 2011 Rise Set
Actual Time 7:23 AM EDT 6:54 PM EDT
Civil Twilight 7:00 AM EDT 7:17 PM EDT
Nautical Twilight 6:33 AM EDT 7:44 PM EDT
Astronomical Twilight 6:07 AM EDT 8:10 PM EDT
Moon 11:54 PM EDT (10/18) 12:51 PM EDT (10/18)
Length of Visible Light 12h 17m
Length of Day
11h 31m
Waning Gibbous, 65% of the Moon is Illuminated
Oct 18
Waning Gibbous
Oct 19
Last Quarter
Oct 26
New
Nov 2
First Quarter
Nov 10
Full

Hourly Weather History & Observations

Time (EDT) Temp. Heat Index Dew Point Humidity Pressure Visibility Wind Dir Wind Speed Gust Speed Precip Events Conditions
12:08 AM 78.8 °F - 75.2 °F 89% 29.82 in 10.0 mi ENE 9.2 mph - 0.00 in Rain Light Rain
12:16 AM 78.8 °F - 75.2 °F 89% 29.82 in 10.0 mi East 11.5 mph - 0.00 in Rain Light Rain
12:24 AM 78.8 °F - 75.2 °F 89% 29.82 in 10.0 mi East 11.5 mph 18.4 mph 0.00 in   Mostly Cloudy
12:53 AM 79.0 °F - 75.9 °F 90% 29.82 in 9.0 mi East 10.4 mph 18.4 mph 0.01 in Rain Light Rain
1:53 AM 79.0 °F - 75.9 °F 90% 29.80 in 6.0 mi East 9.2 mph - 0.06 in Rain Rain
2:53 AM 79.0 °F - 75.9 °F 90% 29.78 in 10.0 mi East 9.2 mph - 0.01 in Rain Light Rain
3:00 AM 78.8 °F - 75.2 °F 89% 29.77 in 8.0 mi East 8.1 mph 17.3 mph 0.00 in Rain Light Rain
3:42 AM 78.8 °F - 75.2 °F 89% 29.78 in 1.8 mi Calm Calm - 0.22 in Rain Heavy Rain
3:51 AM 78.8 °F - 77.0 °F 94% 29.79 in 1.0 mi Variable 4.6 mph - 0.43 in Rain Heavy Rain
3:53 AM 77.0 °F - 75.9 °F 96% 29.79 in 0.8 mi West 4.6 mph - 0.51 in Rain Heavy Rain
4:18 AM 73.4 °F - 73.4 °F 100% 29.78 in 0.2 mi NW 4.6 mph 16.1 mph 1.54 in Fog , Rain Heavy Rain
4:25 AM 73.4 °F - 73.4 °F 100% 29.78 in 1.0 mi NW 4.6 mph - 1.57 in Rain Rain
4:29 AM 73.4 °F - 73.4 °F 100% 29.78 in 3.0 mi North 4.6 mph - 1.57 in Rain Rain
4:41 AM 73.4 °F - 73.4 °F 100% 29.77 in 9.0 mi North 4.6 mph - 1.58 in Rain , Thunderstorm Light Rain
4:53 AM 73.9 °F - 73.0 °F 97% 29.77 in 9.0 mi NE 9.2 mph - 1.58 in Thunderstorm Mostly Cloudy
5:08 AM 73.4 °F - 73.4 °F 100% 29.77 in 9.0 mi East 6.9 mph - 0.00 in Rain Light Rain
5:43 AM 75.2 °F - 73.4 °F 94% 29.76 in 2.5 mi NE 9.2 mph - 0.18 in Rain Light Rain
5:50 AM 75.2 °F - 73.4 °F 94% 29.77 in 4.0 mi ENE 4.6 mph - 0.19 in Rain Light Rain
5:53 AM 75.0 °F - 73.9 °F 96% 29.77 in 6.0 mi NE 5.8 mph - 0.19 in Rain Light Rain
6:01 AM 75.2 °F - 73.4 °F 94% 29.77 in 7.0 mi NE 5.8 mph - 0.00 in Rain Light Rain
6:07 AM 73.4 °F - 73.4 °F 100% 29.77 in 6.0 mi NE 5.8 mph - 0.00 in Rain Light Rain
6:22 AM 75.2 °F - 73.4 °F 94% 29.77 in 10.0 mi ENE 4.6 mph - 0.00 in   Mostly Cloudy
6:53 AM 75.0 °F - 73.9 °F 96% 29.77 in 10.0 mi NE 5.8 mph - 0.00 in   Scattered Clouds
7:53 AM 79.0 °F - 75.9 °F 90% 29.80 in 10.0 mi SE 6.9 mph - N/A   Scattered Clouds
8:53 AM 80.1 °F 85.4 °F 75.9 °F 87% 29.79 in 10.0 mi SE 10.4 mph 16.1 mph N/A   Clear
9:53 AM 81.0 °F 87.9 °F 77.0 °F 88% 29.80 in 10.0 mi SSE 10.4 mph 18.4 mph N/A   Partly Cloudy
10:53 AM 82.0 °F 89.4 °F 75.9 °F 82% 29.78 in 10.0 mi SE 10.4 mph 18.4 mph N/A   Partly Cloudy
11:53 AM 82.0 °F 89.4 °F 75.9 °F 82% 29.79 in 10.0 mi SSE 10.4 mph 18.4 mph N/A   Clear
12:53 PM 82.0 °F 89.4 °F 75.9 °F 82% 29.75 in 10.0 mi SSE 9.2 mph 17.3 mph N/A   Clear
1:53 PM 82.0 °F 89.4 °F 75.9 °F 82% 29.75 in 10.0 mi SSE 9.2 mph 18.4 mph N/A   Partly Cloudy
2:53 PM 82.0 °F 89.4 °F 75.9 °F 82% 29.70 in 10.0 mi SSE 10.4 mph 19.6 mph N/A   Partly Cloudy
3:53 PM 82.0 °F 89.4 °F 75.9 °F 82% 29.72 in 10.0 mi SSE 11.5 mph - N/A   Partly Cloudy
4:53 PM 82.0 °F 90.2 °F 77.0 °F 85% 29.68 in 10.0 mi SSE 9.2 mph 19.6 mph N/A   Clear
5:53 PM 81.0 °F 88.6 °F 78.1 °F 91% 29.68 in 10.0 mi SSE 9.2 mph 18.4 mph 0.00 in   Scattered Clouds
6:53 PM 81.0 °F 89.2 °F 79.0 °F 94% 29.68 in 9.0 mi South 11.5 mph 20.7 mph 0.01 in Rain Light Rain
7:53 PM 82.0 °F 90.2 °F 77.0 °F 85% 29.69 in 10.0 mi South 11.5 mph 21.9 mph 0.00 in   Scattered Clouds
8:53 PM 82.0 °F 91.0 °F 78.1 °F 88% 29.69 in 10.0 mi SSW 9.2 mph 18.4 mph 0.00 in   Scattered Clouds
9:53 PM 82.9 °F 92.8 °F 78.1 °F 85% 29.71 in 10.0 mi South 9.2 mph 19.6 mph N/A   Mostly Cloudy
10:53 PM 82.9 °F 92.8 °F 78.1 °F 85% 29.71 in 10.0 mi South 13.8 mph 23.0 mph N/A   Overcast
11:53 PM 82.0 °F 90.2 °F 77.0 °F 85% 29.71 in 10.0 mi South 13.8 mph 28.8 mph N/A   Mostly Cloudy